SCP
2 2 2 2 2 2 2 1 1 1 1 1 1 1 1 1 1 1 1 1 1 1 1 0 0 0 0 0 0 0 0 0 0 0 0 0 0 0 0 0 0 0 0
2 2 2 2 2 2 2 1 1 1 1 1 1 1 1 1 1 1 1 1 1 1 0 0 0 0 0 0 0 0 0 0 0 0 0 0 0 0 0 0 0 0 0
2 2 2 2 2 2 2 1 1 1 1 1 1 1 1 1 1 1 1 1 1 1 0 0 0 0 0 0 0 0 1 1 0 0 0 0 0 0 0 0 0 0 0
1 2 2 2 2 2 1 1 1 1 1 1 1 1 1 1 0 0 0 0 0 0 0 0 0 0 0 0 0 0 1 1 1 0 0 0 0 0 0 0 0 0 0
1 1 1 1 1 1 1 1 1 1 1 1 0 0 0 0 0 0 0 0 0 0 0 0 0 0 0 0 0 0 0 1 1 0 0 0 0 0 0 0 0 0 0
1 1 1 1 1 1 1 1 1 1 1 0 0 0 0 0 0 0 0 0 0 0 0 0 0 0 0 0 0 0 0 0 0 0 0 0 0 0 0 0 0 0 0
0 1 1 1 1 1 1 1 1 1 0 0 0 0 0 0 0 0 0 0 0 0 0 0 0 0 0 0 0 0 0 0 0 0 0 0 0 0 0 0 0 0 0
0 0 0 0 1 1 1 1 1 0 0 0 0 0 0 0 0 0 0 0 0 0 0 0 0 0 0 0 0 0 0 0 0 0 0 0 0 0 0 0 0 0 0
0 0 0 0 0 0 0 1 1 0 0 0 0 0 0 0 0 0 0 0 0 0 0 0 0 0 0 0 0 0 0 0 0 0 0 0 0 0 0 0 0 0 0
0 0 0 0 0 0 0 0 0 0 0 0 0 0 0 0 0 0 0 0 0 0 0 0 0 0 0 0 0 0 0 0 0 0 0 0 0 0 0 0 0 1 1
0 0 0 0 0 0 0 0 0 0 0 0 0 0 0 0 0 0 0 0 0 0 0 0 0 0 0 0 0 0 0 0 0 0 0 0 0 0 0 0 1 1 1
0 0 0 0 0 0 0 0 0 0 1 1 1 0 0 0 0 0 0 0 0 0 0 0 0 0 0 0 0 0 0 0 0 0 0 0 0 0 0 0 1 1 1
0 0 0 0 0 0 0 0 0 0 1 1 1 1 1 1 0 0 0 0 0 0 0 0 0 0 0 0 0 0 0 0 0 0 0 0 0 0 0 0 0 1 1
0 0 0 0 0 0 0 0 0 0 0 0 1 1 1 1 1 1 1 0 0 0 0 0 0 0 0 0 0 0 0 0 0 0 0 0 0 0 0 0 0 0 0
0 0 0 0 0 0 0 0 0 0 0 0 0 1 1 1 1 1 1 1 1 0 0 0 0 0 0 0 0 0 0 0 0 0 0 0 0 0 0 0 0 0 0
0 0 0 0 0 0 0 0 0 0 0 0 0 0 1 1 1 1 1 1 1 1 1 1 0 0 0 0 0 0 0 0 0 0 0 0 0 0 0 0 0 0 0
0 0 0 0 0 0 0 0 0 0 0 0 0 0 0 1 1 1 1 1 1 1 1 1 1 0 0 0 0 0 0 0 0 0 0 0 0 0 0 0 0 0 0
0 0 0 0 0 0 0 0 0 0 0 0 0 0 0 0 0 1 1 1 1 1 1 1 1 1 0 0 0 0 0 0 0 0 0 0 0 0 0 0 0 0 0
0 0 0 0 0 0 0 0 0 0 0 0 0 0 0 0 0 0 1 1 1 1 1 1 1 1 0 0 0 0 0 0 0 0 0 0 0 0 0 0 0 0 0
0 0 0 0 0 0 0 0 0 0 0 0 0 0 0 0 0 0 0 0 1 1 1 1 1 1 0 0 0 0 0 0 0 0 0 0 0 0 0 0 0 0 0
0 0 0 0 0 0 0 0 0 0 0 0 0 0 0 0 0 0 0 0 0 0 0 0 0 0 0 0 0 0 0 0 0 0 0 0 0 0 0 0 0 0 0
0 0 0 0 0 0 0 0 0 0 0 0 0 0 0 0 0 0 0 0 0 0 0 0 0 0 0 0 0 0 0 0 0 0 0 0 0 0 0 0 0 0 0
0 0 0 0 0 0 0 0 0 0 0 0 0 0 0 0 0 0 0 0 0 0 0 0 0 0 0 0 0 0 0 0 0 0 0 0 0 0 0 0 0 0 0
0 0 0 0 0 0 0 0 0 0 0 0 0 0 0 0 0 0 0 0 0 0 0 0 0 0 0 0 0 0 0 0 0 0 0 0 0 0 0 0 0 0 0
0 0 0 0 0 0 0 0 0 0 0 0 0 0 0 0 0 0 0 0 0 0 0 0 0 0 0 0 0 0 0 0 0 0 0 0 0 0 0 0 0 0 0
0 0 0 0 0 0 0 0 0 0 0 0 0 0 0 0 0 0 0 0 0 0 0 0 0 0 0 0 0 0 0 0 0 0 0 0 0 0 0 0 0 0 0
Wind_Speed
9 8 7 7 8 7 7 8 9 9 10 11 11 12 13 12 11 10 6 11 14 15 17 18 18 18 17 17 18 19 19 19 19 18 19 19 18 17 17 17 16 15 14
8 8 8 8 8 8 7 7 9 8 9 8 11 11 11 11 11 11 10 9 14 15 16 17 17 18 18 18 19 19 19 20 19 18 19 19 19 19 18 18 18 17 16
9 9 8 8 7 7 8 7 9 8 8 9 10 11 9 10 10 10 10 8 9 14 16 16 16 16 17 18 19 19 19 19 19 19 19 19 19 19 19 18 18 18 17
10 9 7 6 6 6 6 6 7 7 7 7 7 7 7 7 9 10 10 9 8 8 12 16 14 14 15 17 18 18 19 19 19 19 19 19 19 20 20 20 19 18 18
9 8 6 5 5 5 5 7 6 6 6 7 7 6 7 7 8 9 9 10 9 8 8 10 14 13 14 16 17 17 18 18 18 20 20 20 20 20 20 20 20 19 19
5 5 5 4 4 4 5 6 5 5 5 5 7 6 6 7 7 8 9 9 8 10 10 8 8 11 15 14 14 15 17 18 18 20 21 22 22 21 20 21 21 21 20
4 4 4 2 3 5 6 6 5 6 6 5 5 6 7 9 7 6 7 7 8 8 7 6 7 6 7 14 14 13 15 17 18 20 21 22 22 21 20 21 21 21 21
5 4 4 3 4 4 5 5 5 5 5 5 5 6 6 6 6 6 5 6 6 6 6 7 5 5 6 5 7 12 12 14 17 18 19 20 20 20 20 20 21 21 22
4 4 5 4 5 5 5 6 6 7 6 5 6 6 5 4 3 5 5 5 5 4 5 4 6 6 7 6 6 9 10 9 12 16 17 18 19 19 19 20 21 21 21
4 4 4 4 5 6 6 6 7 6 7 7 6 6 7 5 4 3 7 7 6 6 5 4 5 5 6 7 4 2 3 5 8 12 14 15 17 18 19 20 21 21 21
3 3 3 4 4 5 6 6 6 7 7 9 7 6 7 6 7 6 4 5 6 6 5 5 4 4 3 4 4 1 1 3 5 8 11 12 14 17 19 20 21 21 22
3 3 3 3 3 4 5 6 7 9 9 9 8 7 7 7 7 7 6 6 5 4 4 3 3 3 2 3 1 5 3 2 4 6 8 10 12 14 17 19 21 21 22
4 3 4 3 4 3 4 5 6 7 9 10 9 8 8 8 6 6 7 6 5 4 4 5 4 2 2 1 2 2 1 1 3 4 5 7 8 9 12 15 18 19 19
7 5 5 5 5 5 5 5 5 6 6 8 10 10 8 8 6 6 7 6 6 6 6 5 3 3 2 1 4 3 1 2 2 3 3 3 5 6 7 10 12 13 15
9 8 8 8 7 6 6 6 5 6 6 7 8 8 8 7 7 7 7 6 7 6 5 5 5 4 3 1 2 1 2 6 4 3 2 1 2 3 4 6 7 9 10
12 11 11 11 10 9 8 8 7 7 7 7 6 7 7 6 6 7 7 7 6 7 6 3 4 4 2 1 3 1 3 5 5 5 4 3 2 2 2 3 3 5 6
13 13 13 13 12 11 10 9 9 8 9 9 8 7 8 7 6 6 6 6 7 7 7 5 3 3 4 3 3 2 2 2 5 8 8 7 6 6 5 5 5 4 4
14 14 14 14 14 13 12 12 11 10 10 10 9 8 8 6 7 6 6 7 6 6 7 7 5 4 5 5 4 3 3 3 5 10 10 10 10 9 8 8 7 6 5
15 15 15 15 15 15 14 13 13 12 11 11 10 10 9 9 8 7 7 7 6 6 6 6 6 4 3 4 5 4 5 4 5 7 9 11 12 12 12 10 10 9 8
15 16 16 15 15 16 15 15 14 13 12 11 11 10 10 10 10 9 8 8 7 7 7 7 6 5 5 6 5 6 5 4 4 5 7 8 11 13 14 12 12 11 10
16 16 16 16 16 15 15 15 14 14 14 13 12 11 11 10 8 7 7 8 8 7 7 7 7 6 6 6 7 6 6 6 4 3 5 4 5 6 8 11 12 13 13
15 15 15 15 15 14 13 13 13 14 13 13 12 12 11 11 11 11 11 10 8 9 9 8 8 9 8 8 7 7 8 7 4 3 4 4 4 6 7 8 11 13 14
15 14 15 15 15 14 10 12 14 13 14 13 12 11 11 10 11 11 13 15 14 13 12 10 10 10 9 9 10 11 9 8 6 7 6 5 5 7 7 9 13 13 14
13 12 13 14 13 13 12 13 13 15 15 14 13 13 12 11 10 10 11 12 13 14 14 13 11 10 9 8 10 10 10 8 8 5 5 5 5 6 7 8 12 13 14
12 11 11 12 12 11 11 13 13 12 13 15 14 14 13 12 8 7 10 11 11 11 12 13 11 7 5 6 8 8 10 11 8 5 3 5 7 7 7 7 9 12 13
11 11 11 10 11 11 11 14 15 11 12 12 12 12 11 11 6 10 11 11 12 11 10 11 11 9 9 10 12 11 12 12 10 6 5 6 9 7 6 5 6 7 9
Wind_Direction
246 244 243 243 245 242 234 237 245 248 247 247 243 238 238 236 240 242 233 196 205 217 226 228 227 226 226 224 220 216 215 215 217 217 217 217 217 216 214 211 209 206 206
255 250 244 239 243 245 246 244 247 248 249 249 250 248 243 241 237 238 242 219 208 216 224 228 228 227 226 224 222 218 215 216 218 219 221 220 218 217 216 215 213 209 207
260 254 251 242 243 245 243 241 247 248 247 245 244 244 243 243 242 238 242 246 230 213 216 223 229 229 227 226 223 219 216 215 216 217 220 222 221 218 217 216 216 214 210
263 257 251 245 242 240 238 237 241 243 244 248 251 250 245 240 241 241 240 236 241 240 213 212 221 225 227 227 225 222 217 214 215 217 219 221 223 220 218 218 217 216 213
269 262 253 250 245 241 242 248 235 240 249 252 254 244 247 245 242 241 243 244 238 238 242 197 203 218 225 229 229 226 220 217 216 216 217 218 223 221 218 218 218 217 215
272 272 254 245 249 240 239 244 252 238 258 257 262 264 254 250 241 238 239 238 239 237 237 232 213 212 215 223 228 229 225 220 216 216 216 218 220 219 218 218 218 217 216
287 278 280 252 236 241 245 247 243 232 235 236 249 249 238 233 236 239 237 241 229 230 239 233 238 242 209 206 216 224 227 226 220 218 218 218 219 218 216 217 218 218 217
298 283 278 265 250 249 245 248 244 255 245 218 242 255 244 210 208 221 216 220 228 216 221 220 231 238 259 240 195 205 221 230 229 224 221 219 219 218 215 215 216 217 218
301 298 288 278 266 257 249 240 240 238 246 233 232 251 259 250 180 180 205 210 210 225 233 228 234 239 247 253 246 202 208 227 237 235 227 222 219 217 215 216 216 215 217
312 314 306 287 273 265 259 248 237 241 242 242 219 235 263 311 275 193 187 188 201 219 242 256 256 246 245 248 242 271 221 242 248 248 240 230 222 218 215 216 217 216 216
305 310 311 305 292 282 275 265 259 245 238 243 239 221 218 218 240 261 215 188 196 207 212 233 254 260 259 259 262 32 62 268 260 258 251 240 229 222 218 217 218 218 217
289 297 296 294 286 284 282 273 262 247 246 246 249 243 226 219 220 226 228 219 216 208 207 235 239 230 237 248 246 55 10 307 278 265 254 245 237 229 224 221 221 221 220
273 263 278 277 278 276 276 273 268 269 255 247 240 241 241 240 239 235 236 229 224 213 204 218 199 208 212 225 111 79 192 318 300 281 262 248 241 236 229 223 222 222 221
278 272 249 248 255 259 259 258 263 260 265 260 251 247 246 242 238 237 240 240 230 222 205 206 180 187 179 200 82 273 108 66 348 316 284 256 240 233 231 224 221 220 220
266 254 245 242 239 239 246 252 257 255 253 254 261 256 250 247 238 233 234 239 243 242 221 180 196 164 178 136 98 322 36 63 30 13 354 270 230 217 217 214 214 215 216
269 262 252 246 242 237 234 240 250 247 248 245 246 253 252 255 248 237 230 230 235 249 254 199 191 173 149 163 127 90 80 99 63 39 41 55 77 120 145 164 186 200 206
264 258 252 248 244 240 235 231 244 247 245 247 242 242 243 244 248 242 233 229 227 230 241 236 202 169 174 194 150 131 106 82 79 60 57 62 70 82 92 101 110 125 145
259 256 252 250 246 242 236 232 236 241 241 243 240 237 241 239 242 241 236 232 229 227 234 240 218 195 185 175 154 143 117 93 84 73 66 65 68 74 81 86 90 94 103
262 258 254 249 247 245 239 234 234 237 239 241 240 235 234 231 233 235 233 231 228 227 231 239 233 204 189 169 156 142 119 108 100 101 87 77 72 73 75 79 81 83 85
264 258 252 247 245 242 239 235 231 232 235 238 238 238 237 231 229 227 229 228 225 224 222 231 232 211 192 177 174 162 144 135 114 95 81 86 87 81 77 77 80 83 83
268 260 254 248 243 240 235 232 232 229 229 233 233 234 236 236 238 233 238 229 220 218 217 219 223 216 199 185 187 177 154 134 113 123 118 104 103 92 87 82 80 82 83
272 267 260 252 245 241 227 212 224 234 229 229 232 231 233 220 221 221 235 242 240 230 223 219 219 217 209 198 187 174 157 157 146 150 125 93 83 81 73 75 76 82 83
273 267 261 253 245 243 229 203 211 232 233 230 230 229 234 225 209 222 217 218 228 236 242 240 232 225 212 200 187 180 179 175 146 147 136 108 93 85 81 78 80 82 84
274 270 263 256 249 240 216 206 205 224 235 231 228 228 231 240 228 228 233 224 223 220 222 229 237 235 226 206 194 184 162 130 115 128 136 118 114 102 96 90 83 84 86
274 266 261 255 247 239 210 198 202 225 228 230 228 227 227 230 214 202 237 242 235 229 216 218 232 243 231 192 179 161 153 149 141 141 148 128 133 118 105 103 94 88 87
273 268 260 253 245 238 211 193 201 226 228 226 224 226 219 231 199 185 228 238 237 231 224 202 208 212 208 188 180 180 168 162 149 148 169 148 151 141 120 121 129 129 110